Back to catalog

CZ-6A DEB

AlivePO
NORAD 60891·DEBRIS·🇨🇳 China

Launched Aug 6, 2024 from Taiyuan Satellite Launch Center

Loading…

Next Passes (next 24 hours)

TLE

FreshSource: Space-Track

Epoch: Sep 14, 2026, 09:09 UTC

1 60891U 24140KW  26257.38183733  .00000519  00000-0  27150-3 0  9996
2 60891  89.3280 295.0420 0083408 290.9418  68.2855 14.11345677106644

Track CZ-6A DEB in real time with AllMySat

Download on the App Store